Weather History for KHON - March, 2013

Change the Weather History Date:

Sunday, March 17, 2013

  Actual Average Record
Temperature  
Mean Temperature 26 °F 34 °F  
Max Temperature 36 °F 44 °F 79 °F (2012)
Min Temperature 15 °F 23 °F -9 °F (1923)
Degree Days  
Heating Degree Days 39 31  
Month to date heating degree days 656 592  
Since 1 July heating degree days 6482 6424  
Cooling Degree Days 0 0  
Month to date cooling degree days 0 0  
Year to date cooling degree days 0 0  
Moisture  
Dew Point 20 °F    
Average Humidity 82    
Maximum Humidity 96    
Minimum Humidity 68    
Precipitation  
Precipitation 0.03 in 0.05 in 2.15 in (1987)
Month to date precipitation 0.65 0.65  
Year to date precipitation 2.03 1.75  
Snow  
Snow 0.10 in 0.30 in 8.10 in (1989)
Month to date snowfall 5.4 5.5  
Since 1 July snowfall 38.6 36.5  
Snow Depth 2.00 in    
Sea Level Pressure  
Sea Level Pressure 29.85 in    
Wind  
Wind Speed 17 mph (SE)    
Max Wind Speed 29 mph    
Max Gust Speed 41 mph    
Visibility 7 miles    
Events Fog , Snow    
T = Trace of Precipitation, MM = Missing Value Source: NWS Daily Summary

Daily Weather History Graph

Daily Weather History Graph

Search for Another Location

Airport or City:

Trip Planner

Search our weather history database for the weather conditions in past years. The results will help you decide how hot, cold, wet, or windy it might be!

Date:

Astronomy

Mar. 17, 2013 Rise Set
Actual Time 7:41 AM CDT 7:41 PM CDT
Civil Twilight 7:12 AM CDT 8:10 PM CDT
Nautical Twilight 6:38 AM CDT 8:44 PM CDT
Astronomical Twilight 6:03 AM CDT 9:19 PM CDT
Moon 10:42 AM CDT (3/17) 1:03 AM CDT (3/17)
Length of Visible Light 12h 58m
Length of Day
12h 00m
Waxing Crescent, 31% of the Moon is Illuminated
Mar 17
Waxing Crescent
Mar 19
First Quarter
Mar 27
Full
Apr 2
Last Quarter
Apr 10
New

Hourly Weather History & Observations

Time (CDT) Temp. Windchill Dew Point Humidity Pressure Visibility Wind Dir Wind Speed Gust Speed Precip Events Conditions
12:55 AM 15.1 °F 3.3 °F 10.9 °F 84% 30.27 in 3.0 mi East 9.2 mph - 0.00 in Snow Light Snow
1:12 AM 15.8 °F 3.4 °F 10.4 °F 79% 30.18 in 2.5 mi East 10.4 mph - 0.01 in Snow Light Snow
1:21 AM 15.8 °F 4.2 °F 10.4 °F 79% 30.18 in 3.0 mi East 9.2 mph - 0.01 in Snow Light Snow
1:55 AM 16.0 °F 5.3 °F 12.0 °F 84% 30.25 in 5.0 mi East 8.1 mph - 0.01 in Snow Light Snow
2:55 AM 17.1 °F 5.8 °F 12.0 °F 81% 30.23 in 10.0 mi East 9.2 mph - 0.00 in   Overcast
3:55 AM 16.0 °F 4.4 °F 10.9 °F 81% 30.20 in 9.0 mi East 9.2 mph - 0.00 in Snow Light Snow
4:55 AM 16.0 °F 3.6 °F 10.9 °F 81% 30.17 in 10.0 mi East 10.4 mph - 0.00 in   Overcast
5:55 AM 16.0 °F 2.3 °F 10.9 °F 81% 30.14 in 10.0 mi East 12.7 mph - N/A   Overcast
6:55 AM 15.1 °F 2.5 °F 10.0 °F 80% 30.13 in 10.0 mi ESE 10.4 mph - N/A   Overcast
7:55 AM 16.0 °F 4.4 °F 10.9 °F 81% 30.11 in 10.0 mi ESE 9.2 mph - N/A   Overcast
8:55 AM 17.1 °F 4.3 °F 10.9 °F 77% 30.08 in 10.0 mi SE 11.5 mph - N/A   Overcast
9:55 AM 19.0 °F 5.0 °F 12.0 °F 74% 30.05 in 10.0 mi SE 15.0 mph - N/A   Overcast
10:55 AM 21.0 °F 6.2 °F 12.9 °F 71% 30.00 in 10.0 mi SE 18.4 mph 26.5 mph N/A   Overcast
11:55 AM 21.9 °F 5.8 °F 15.1 °F 75% 29.97 in 10.0 mi SSE 23.0 mph 33.4 mph N/A   Overcast
12:55 PM 25.0 °F 10.6 °F 17.1 °F 72% 29.94 in 10.0 mi SSE 20.7 mph 31.1 mph N/A   Overcast
1:55 PM 28.0 °F 14.6 °F 19.0 °F 69% 29.86 in 10.0 mi SSE 20.7 mph 32.2 mph N/A   Overcast
2:55 PM 28.9 °F 15.4 °F 19.0 °F 67% 29.80 in 10.0 mi SSE 21.9 mph 29.9 mph N/A   Overcast
3:55 PM 30.9 °F 18.7 °F 21.0 °F 67% 29.73 in 10.0 mi SSE 19.6 mph 35.7 mph N/A   Scattered Clouds
4:55 PM 30.0 °F 17.5 °F 21.9 °F 72% 29.70 in 9.0 mi SSE 19.6 mph 32.2 mph 0.00 in   Overcast
5:55 PM 32.0 °F 19.5 °F 24.1 °F 73% 29.65 in 5.0 mi SE 21.9 mph 33.4 mph 0.00 in Snow Light Snow
6:00 PM 30.2 °F 16.5 °F 24.8 °F 80% 29.60 in 0.8 mi SSE 24.2 mph 33.4 mph 0.00 in Snow Light Snow
6:13 PM 30.2 °F 17.8 °F 24.8 °F 80% 29.60 in 1.2 mi SSE 19.6 mph 32.2 mph 0.00 in Snow Light Snow
6:20 PM 32.0 °F 19.5 °F 24.8 °F 75% 29.60 in 4.0 mi SSE 21.9 mph 33.4 mph 0.00 in Snow Light Snow
6:31 PM 32.0 °F 18.4 °F 24.8 °F 75% 29.60 in 1.8 mi SSE 26.5 mph 38.0 mph 0.00 in Snow Light Snow
6:40 PM 30.2 °F 17.4 °F 26.6 °F 86% 29.59 in 0.5 mi SSE 20.7 mph 36.8 mph 0.00 in Fog , Snow Snow
6:52 PM 30.2 °F 17.1 °F 28.4 °F 93% 29.57 in 1.0 mi SSE 21.9 mph 35.7 mph 0.01 in Snow Light Snow
6:55 PM 30.0 °F 17.2 °F 28.0 °F 92% 29.62 in 1.5 mi SSE 20.7 mph 36.8 mph 0.01 in Snow Light Snow
7:01 PM 30.2 °F 17.1 °F 28.4 °F 93% 29.59 in 2.5 mi SSE 21.9 mph 36.8 mph 0.00 in Snow Light Snow
7:08 PM 30.2 °F 17.8 °F 28.4 °F 93% 29.59 in 5.0 mi SSE 19.6 mph 32.2 mph 0.00 in   Overcast
7:22 PM 30.2 °F 16.8 °F 28.4 °F 93% 29.60 in 10.0 mi SSE 23.0 mph 33.4 mph 0.00 in   Overcast
7:55 PM 30.9 °F 17.8 °F 28.9 °F 92% 29.65 in 9.0 mi SSE 23.0 mph 34.5 mph 0.00 in   Overcast
8:20 PM 32.0 °F 19.5 °F 28.4 °F 87% 29.57 in 5.0 mi SSE 21.9 mph 36.8 mph 0.00 in Snow Light Snow
8:55 PM 32.0 °F 18.9 °F 30.0 °F 92% 29.60 in 10.0 mi SSE 24.2 mph 35.7 mph 0.01 in   Overcast
9:55 PM 34.0 °F 22.1 °F 30.9 °F 89% 29.61 in 9.0 mi South 21.9 mph 32.2 mph N/A   Overcast
10:43 PM 33.8 °F 22.5 °F 32.0 °F 93% 29.56 in 5.0 mi South 19.6 mph 26.5 mph 0.00 in Snow Light Snow
10:55 PM 34.0 °F 23.4 °F 32.0 °F 92% 29.60 in 8.0 mi South 17.3 mph 29.9 mph 0.00 in   Overcast
11:55 PM 35.1 °F 24.8 °F 30.9 °F 85% 29.59 in 10.0 mi South 17.3 mph 27.6 mph 0.00 in   Overcast